User: anonymous   Login
Location: Beekmeers
(50.8953°N, 3.6968°E)
Time: 06:27:47
(UTC+00:00)
Language:

Cosmos 1455 - Orbit

View from above orbital plane
View from above orbital plane
View from above satellite
View from above satellite

Ground track
Ground track

The orbit data is extracted from the following two-line orbital elements,

1 14032U 83037A   24204.51135696  .00025410  00000-0  65430-3 0  9992
2 14032  82.5053  31.2723 0010185 217.8783 142.1746 15.39034629255182
Epoch (UTC): 22 July 2024 12:16:21
Eccentricity: 0.0010185
inclination: 82.5053°
perigee height: 442 km
apogee height: 456 km
right ascension of ascending node: 31.2723°
argument of perigee: 217.8783°
revolutions per day: 15.39034629
mean anomaly at epoch: 142.1746°
orbit number at epoch: 25518

The dashed part of the orbit path shows where the satellite is in the earth's shadow,  

DLR